Seminole, TX

2:00 PM CDT on October 01, 2016 (GMT -0500)
Seminole

Weather History for KGNC - June, 2013

Change the Weather History Date:

Wednesday, June 5, 2013

  Actual Average (KHOB) Record (KHOB)
Temperature  
Mean Temperature 80 °F -  
Max Temperature 97 °F 90 °F 102 °F (2014)
Min Temperature 62 °F 62 °F 52 °F (1950)
Cooling Degree Days 14    
Growing Degree Days 30 (Base 50)    
Moisture  
Dew Point 46 °F    
Average Humidity 30    
Maximum Humidity 82    
Minimum Humidity 15    
Precipitation  
Precipitation 0.00 in - - ()
Sea Level Pressure  
Sea Level Pressure 29.89 in    
Wind  
Wind Speed 12 mph (East)    
Max Wind Speed 37 mph    
Max Gust Speed 52 mph    
Visibility 10 miles    
Events Rain    
Averages and records for this station are not official NWS values.
T = Trace of Precipitation, MM = Missing Value Source: NWS Daily Summary

Daily Weather History Graph

Daily Weather History Graph

Search for Another Location

Airport or City:

Trip Planner

Search our weather history database for the weather conditions in past years. The results will help you decide how hot, cold, wet, or windy it might be!

Date:

Astronomy

Jun. 05, 2013 Rise Set
Actual Time 6:42 AM CDT 8:55 PM CDT
Civil Twilight 6:14 AM CDT 9:24 PM CDT
Nautical Twilight 5:39 AM CDT 9:58 PM CDT
Astronomical Twilight 5:02 AM CDT 10:36 PM CDT
Moon 4:40 AM CDT (6/5) 6:30 PM CDT (6/5)
Length of Visible Light 15h 09m
Length of Day
14h 13m
Waning Crescent, 8% of the Moon is Illuminated
Jun 5
Waning Crescent
Jun 8
New
Jun 16
First Quarter
Jun 23
Full
Jun 29
Last Quarter

Hourly Weather History & Observations

Time (CDT) Temp. Heat Index Dew Point Humidity Pressure Visibility Wind Dir Wind Speed Gust Speed Precip Events Conditions
12:15 AM 84.6 °F - 40.6 °F 21% 29.86 in 10.0 mi SSW 13.8 mph - N/A   Clear
12:35 AM 82.8 °F - 41.2 °F 23% 29.85 in 10.0 mi SSW 13.8 mph 17.3 mph N/A   Clear
12:55 AM 81.9 °F - 42.3 °F 25% 29.85 in 10.0 mi SSW 13.8 mph - N/A   Clear
1:15 AM 80.6 °F - 43.2 °F 27% 29.85 in 10.0 mi SSW 11.5 mph - N/A   Clear
1:35 AM 79.2 °F - 43.5 °F 28% 29.85 in 10.0 mi SSW 9.2 mph - N/A   Clear
1:55 AM 77.9 °F - 43.9 °F 30% 29.85 in 10.0 mi SW 10.4 mph - N/A   Clear
2:15 AM 77.0 °F - 43.9 °F 31% 29.85 in 10.0 mi SSW 8.1 mph - N/A   Clear
2:35 AM 74.7 °F - 43.9 °F 33% 29.84 in 10.0 mi SSW 5.8 mph - N/A   Clear
2:55 AM 72.1 °F - 43.7 °F 36% 29.84 in 10.0 mi South 5.8 mph - N/A   Clear
3:15 AM 70.2 °F - 43.9 °F 39% 29.84 in 10.0 mi SSW 5.8 mph - N/A   Clear
3:35 AM 70.2 °F - 44.6 °F 40% 29.84 in 10.0 mi SE 6.9 mph - N/A   Clear
3:55 AM 69.8 °F - 44.8 °F 41% 29.85 in 10.0 mi South 6.9 mph - N/A   Clear
4:15 AM 69.6 °F - 44.4 °F 40% 29.85 in 10.0 mi SSW 8.1 mph - N/A   Clear
4:35 AM 70.2 °F - 45.1 °F 41% 29.84 in 10.0 mi SSW 9.2 mph - N/A   Clear
4:55 AM 71.1 °F - 45.0 °F 39% 29.84 in 10.0 mi SSW 11.5 mph - N/A   Clear
5:15 AM 71.4 °F - 44.6 °F 38% 29.85 in 10.0 mi SSW 8.1 mph - N/A   Clear
5:35 AM 70.5 °F - 44.6 °F 39% 29.85 in 10.0 mi SW 9.2 mph - N/A   Clear
5:55 AM 69.3 °F - 44.6 °F 41% 29.85 in 10.0 mi SW 6.9 mph - N/A   Clear
6:15 AM 67.8 °F - 44.6 °F 43% 29.85 in 10.0 mi SSW 5.8 mph - N/A   Clear
6:35 AM 68.0 °F - 44.8 °F 43% 29.87 in 10.0 mi East 8.1 mph - N/A   Clear
6:55 AM 67.1 °F - 44.8 °F 45% 29.87 in 10.0 mi SSW 6.9 mph - N/A   Clear
7:15 AM 68.2 °F - 44.6 °F 43% 29.88 in 10.0 mi SSW 5.8 mph - N/A   Clear
7:35 AM 70.0 °F - 44.6 °F 40% 29.88 in 10.0 mi SW 5.8 mph - N/A   Clear
7:55 AM 71.8 °F - 44.4 °F 37% 29.88 in 10.0 mi SSW 4.6 mph - N/A   Clear
8:15 AM 73.4 °F - 44.6 °F 36% 29.89 in 10.0 mi SSW 6.9 mph - N/A   Clear
8:35 AM 75.7 °F - 44.8 °F 33% 29.89 in 10.0 mi SW 10.4 mph - N/A   Clear
8:55 AM 79.5 °F - 44.2 °F 29% 29.90 in 10.0 mi WSW 6.9 mph - N/A   Clear
9:15 AM 82.8 °F - 42.1 °F 24% 29.91 in 10.0 mi West 10.4 mph - N/A   Clear
9:35 AM 84.9 °F - 38.3 °F 19% 29.92 in 10.0 mi NW 16.1 mph 19.6 mph N/A   Clear
9:55 AM 85.1 °F - 38.7 °F 19% 29.92 in 10.0 mi NNW 10.4 mph - N/A   Clear
10:15 AM 85.5 °F - 38.1 °F 19% 29.91 in 10.0 mi NNW 8.1 mph - N/A   Clear
10:35 AM 85.6 °F - 41.7 °F 21% 29.92 in 10.0 mi North 11.5 mph 16.1 mph N/A   Clear
10:55 AM 86.5 °F - 43.5 °F 22% 29.92 in 10.0 mi North 10.4 mph 18.4 mph N/A   Clear
11:15 AM 86.7 °F - 44.8 °F 23% 29.93 in 10.0 mi NNE 10.4 mph - N/A   Clear
11:35 AM 88.3 °F - 40.5 °F 19% 29.93 in 10.0 mi NE 8.1 mph 16.1 mph N/A   Clear
11:55 AM 89.2 °F - 40.8 °F 18% 29.93 in 10.0 mi NE 10.4 mph 16.1 mph N/A   Clear
12:15 PM 90.5 °F - 42.6 °F 19% 29.93 in 10.0 mi ENE 11.5 mph 18.4 mph N/A   Clear
12:35 PM 91.0 °F - 41.0 °F 17% 29.93 in 10.0 mi ENE 13.8 mph 17.3 mph N/A   Clear
12:55 PM 93.2 °F - 40.3 °F 16% 29.93 in 10.0 mi East 10.4 mph 17.3 mph N/A   Clear
1:15 PM 94.5 °F - 40.1 °F 15% 29.92 in 10.0 mi ENE 15.0 mph 20.7 mph N/A   Clear
1:35 PM 94.6 °F - 41.5 °F 16% 29.92 in 10.0 mi East 16.1 mph 23.0 mph N/A   Clear
1:55 PM 94.6 °F - 41.2 °F 16% 29.92 in 10.0 mi ENE 11.5 mph 18.4 mph N/A   Clear
2:15 PM 95.4 °F - 43.3 °F 17% 29.91 in 10.0 mi East 13.8 mph 25.3 mph N/A   Clear
2:35 PM 95.7 °F - 43.3 °F 16% 29.91 in 10.0 mi East 12.7 mph 25.3 mph N/A   Clear
2:55 PM 96.1 °F - 44.6 °F 17% 29.91 in 10.0 mi East 16.1 mph 23.0 mph N/A   Clear
3:15 PM 96.1 °F - 44.8 °F 17% 29.90 in 10.0 mi East 13.8 mph 23.0 mph N/A   Clear
3:35 PM 96.6 °F - 45.3 °F 17% 29.89 in 10.0 mi East 16.1 mph - N/A   Clear
3:55 PM 96.8 °F - 43.7 °F 16% 29.89 in 10.0 mi ENE 13.8 mph 18.4 mph N/A   Clear
4:15 PM 97.2 °F - 45.3 °F 17% 29.88 in 10.0 mi ENE 13.8 mph 21.9 mph N/A   Clear
4:35 PM 97.7 °F - 46.6 °F 17% 29.87 in 10.0 mi ENE 13.8 mph 19.6 mph N/A   Clear
4:55 PM 97.7 °F - 46.6 °F 17% 29.87 in 10.0 mi ENE 13.8 mph 20.7 mph N/A   Clear
5:15 PM 97.5 °F - 47.7 °F 18% 29.86 in 10.0 mi East 16.1 mph 24.2 mph N/A   Clear
5:35 PM 96.8 °F - 48.4 °F 19% 29.86 in 10.0 mi East 16.1 mph 21.9 mph N/A   Clear
5:55 PM 96.1 °F - 48.9 °F 20% 29.84 in 10.0 mi East 16.1 mph 23.0 mph N/A   Clear
6:15 PM 95.9 °F - 49.1 °F 20% 29.83 in 10.0 mi ENE 15.0 mph 21.9 mph N/A   Clear
6:35 PM 94.6 °F - 49.1 °F 21% 29.83 in 10.0 mi East 12.7 mph - N/A   Clear
6:55 PM 92.5 °F - 49.6 °F 23% 29.83 in 10.0 mi East 13.8 mph - N/A   Clear
7:15 PM 93.6 °F - 50.0 °F 23% 29.83 in 10.0 mi East 13.8 mph 19.6 mph N/A   Clear
7:35 PM 93.2 °F - 50.0 °F 23% 29.82 in 10.0 mi East 11.5 mph 19.6 mph N/A   Clear
7:55 PM 92.5 °F - 50.4 °F 24% 29.82 in 10.0 mi East 12.7 mph 19.6 mph N/A   Clear
8:15 PM 90.7 °F - 51.6 °F 26% 29.83 in 10.0 mi ENE 15.0 mph 20.7 mph N/A   Clear
8:35 PM 89.1 °F - 51.8 °F 28% 29.84 in 10.0 mi ENE 13.8 mph 18.4 mph N/A   Clear
8:55 PM 87.6 °F 85.5 °F 53.1 °F 31% 29.86 in 10.0 mi ENE 16.1 mph 19.6 mph N/A   Clear
9:15 PM 86.4 °F 84.4 °F 53.4 °F 32% 29.87 in 10.0 mi East 12.7 mph 21.9 mph N/A   Clear
9:35 PM 82.8 °F - 52.5 °F 35% 29.89 in 10.0 mi East 8.1 mph - N/A   Scattered Clouds
9:55 PM 82.6 °F - 50.9 °F 33% 29.91 in 10.0 mi NE 9.2 mph - N/A   Scattered Clouds
10:15 PM 84.4 °F - 44.4 °F 25% 29.93 in 7.0 mi NNW 29.9 mph 39.1 mph N/A Rain Light Rain
10:35 PM 78.4 °F - 47.8 °F 34% 30.01 in 7.0 mi North 36.8 mph 46.0 mph N/A Rain Rain
10:55 PM 62.6 °F - 57.2 °F 82% 30.03 in 5.0 mi North 34.5 mph 51.8 mph N/A Rain Light Rain
11:15 PM 63.5 °F - 56.3 °F 77% 30.08 in 10.0 mi North 19.6 mph 39.1 mph N/A Rain Light Rain
11:35 PM 63.5 °F - 55.8 °F 76% 30.06 in 7.0 mi NNE 17.3 mph 33.4 mph N/A Rain Light Rain
11:55 PM 65.1 °F - 55.0 °F 70% 30.04 in 10.0 mi NNE 15.0 mph 26.5 mph N/A   Scattered Clouds